Вернуться в каталог

STARLINK-30968

АктивенСвязьVLEO
NORAD 58511·PAYLOAD·🇺🇸 United States

Запущен Dec 7, 2023 с Cape Canaveral Space Force Station

Loading…

Ближайшие Пролёты (ближайшие 24 часа)

TLE

СвежийSource: CelesTrak SupGP

Эпоха: Sep 14, 2026, 21:22 UTC

1 58511C 23191D   26257.89076389 -.00046683  00000+0 -16913-2 0  2575
2 58511  42.9994 115.2433 0001300 271.7781  82.7005 15.27593123    16

Отслеживайте STARLINK-30968 в реальном времени с AllMySat

Download on the App Store